User: anonymous   Login
Location: Unspecified
(0.0000°N, 0.0000°E)
Time: 02:35:16
(UTC+00:00)
Language:

GALILEO-FM3 - Orbit

View from above orbital plane
View from above orbital plane
View from above satellite
View from above satellite

Ground track
Ground track

The orbit data is extracted from the following two-line orbital elements,

1 38857U 12055A   18318.86321165 +.00000048 +00000-0 +00000-0 0  9999
2 38857 054.9134 177.7816 0001451 248.8824 111.1905 01.70473962037910
Epoch (UTC): 14 November 2018 20:43:01
Eccentricity: 0.0001451
inclination: 54.9134°
perigee height: 23217 km
apogee height: 23226 km
right ascension of ascending node: 177.7816°
argument of perigee: 248.8824°
revolutions per day: 1.70473962
mean anomaly at epoch: 111.1905°
orbit number at epoch: 3791

The dashed part of the orbit path shows where the satellite is in the earth's shadow,  

DLR